Location: Newark
(48.1500°N, 2.9667°W)
Time: 03:54:27
(UTC+00:00)

Altair - Pass Details

Date: 29 January 2020
Orbit: 1502 x 1682 km, 47.2° (Epoch: 16 February)

Event Time Altitude Azimuth Distance (km) Brightness Sun altitude
Rises 10:12:06 0° 263° (W) 4,897 9.9 17.5°
Reaches altitude 10° 10:15:14 10° 263° (W) 3,924 9.4 17.8°
Maximum altitude 10:25:24 86° 177° (S) 1,691 8.1 18.7°
Drops below altitude 10° 10:35:35 10° 90° (E) 3,928 10.1 19.5°
Sets 10:38:43 0° 90° (E) 4,902 10.5 19.7°
